Regional Weather Roundup
Issued by NWS

Home | Current Version | Previous Version | Text Only | Print | Product List | Glossary Off
Versions: 1 2 3 4 5 6 7 8 9 10 11 12 13 14 15 16 17 18 19 20 21 22 23 24 25 26 27 28 29 30 31 32 33 34 35 36 37 38 39 40 41 42 43 44 45 46 47 48 49 50

000
ASUS43 KOAX 240202
RWRNE

WEATHER ROUNDUP FOR NEBRASKA
NATIONAL WEATHER SERVICE OMAHA NE
800 PM CST THU FEB 23 2017

NOTES: SATELLITE DATA IS BEING USED TO AUGMENT CLOUD COVER ABOVE
       12000 FEET.
       "FAIR" INDICATES FEW OR NO CLOUDS BELOW 12,000 FEET WITH NO
       SIGNIFICANT WEATHER AND/OR OBSTRUCTIONS TO VISIBILITY.

  * THESE STATIONS DO NOT REPORT WEATHER SUCH AS RAIN...SNOW OR FOG.

NEZ001>004-019>022-054>056-240300-
NEBRASKA PANHANDLE

CITY           SKY/WX    TMP DP  RH WIND       PRES   REMARKS
SCOTTSBLUFF    LGT SNOW  23  20  88 NW8       29.87R VSB 1   WCI  14
ALLIANCE       LGT SNOW  22  19  89 N17       29.83R VSB 3/4 WCI   8
CHADRON        LGT SNOW  25  22  88 N14G28    29.91R FOG     WCI  13
KIMBALL        FLURRIES  20  20  97 N12       29.81R WCI   8
SIDNEY         CLOUDY    21  18  88 N16       29.80R FOG     WCI   7
$$

NEZ057>060-069>072-079>082-240300-
SOUTHWEST NEBRASKA

CITY           SKY/WX    TMP DP  RH WIND       PRES   REMARKS
NORTH PLATTE   LGT SNOW  26  23  88 N12       29.77R FOG     WCI  16
IMPERIAL       MOCLDY    24  21  88 N14       29.76R WCI  12
LEXINGTON      FLURRIES  29  26  89 N9        29.73R WCI  21
MCCOOK         LGT SNOW  29  28  96 N16       29.73R FOG     WCI  17
OGALLALA       LGT SNOW  26  23  88 N17       29.79R WCI  13
$$

NEZ005>010-023>029-035>040-094-240300-
NORTH CENTRAL NEBRASKA

CITY           SKY/WX    TMP DP  RH WIND       PRES   REMARKS
VALENTINE      FOG       24  21  88 N17G31    29.86R VSB 3/4 WCI  11
AINSWORTH      CLOUDY    26  25  97 N28G36    29.81S WCI   9
BROKEN BOW     LGT SNOW  28  25  88 N17       29.73R FOG     WCI  16
O`NEILL        CLOUDY    28  28  96 N20G28    29.78R WCI  15
ORD            LGT SNOW  29  25  85 N14G25    29.71F VSB 1   WCI  18
THEDFORD       LGT SNOW  26  24  93 N20G25    29.80R VSB 3/4 WCI  12
$$

NEZ041-046>049-061>064-073>077-083>087-240300-
SOUTH CENTRAL NEBRASKA

CITY           SKY/WX    TMP DP  RH WIND       PRES   REMARKS
GRAND ISLAND   LGT SNOW  30  29  96 N23G31    29.65R FOG     WCI  17
AURORA         LGT SNOW  32  31  96 N18       29.63S WCI  20
HASTINGS       FLURRIES  31  29  92 NE21      29.62S WCI  18
HEBRON         TSTM      34  32  95 N12G17    29.61S WCI  25
HOLDREGE       CLOUDY    30  28  94 N13       29.69R WCI  20
KEARNEY *      CLOUDY    30  27  86 N14       29.69R WCI  20
YORK           LGT SNOW  32  32 100 NE17G23   29.63R VSB 1   WCI  21
$$

NEZ011>018-030>034-042>045-240300-
NORTHEAST NEBRASKA

CITY           SKY/WX    TMP DP  RH WIND       PRES   REMARKS
NORFOLK        LGT SNOW  30  27  88 NE21G28   29.70F FOG     WCI  17
ALBION         LGT SNOW  32  28  86 N17       29.70S WCI  20
BLAIR          LGT RAIN  36  34  94 NE20G28   29.60F WCI  25
FREMONT        MIX PCPN  33  33 100 N7        29.66F WCI  27
TEKAMAH        LGT RAIN  33  31  92 N18       29.66S WCI  22
WAYNE          LGT SNOW  30  30  98 N17       29.71S WCI  18
$$

NEZ050>053-065>068-078-088>093-240300-
SOUTHEAST NEBRASKA

CITY           SKY/WX    TMP DP  RH WIND       PRES   REMARKS
LINCOLN        LGT RAIN  36  35  96 N22       29.59F FOG     WCI  25
OMAHA EPPLEY   LGT RAIN  37  33  85 N17G24    29.60F WCI  27
BEATRICE       LGT RAIN  39  38  97 N13G22    29.55R WCI  31
FALLS CITY     CLOUDY    48  40  73 N9        29.48R
NEBRASKA CITY  CLOUDY    40  38  91 NE18      29.54F WCI  31
PLATTSMOUTH    DRIZZLE   38  36  90 NE12G18   29.58F WCI  31
$$

NEZ044-045-051>053-067-240300-
OMAHA AREA

CITY           SKY/WX    TMP DP  RH WIND       PRES   REMARKS
OMAHA EPPLEY   LGT RAIN  37  33  85 N17G24    29.60F WCI  27
BLAIR          LGT RAIN  36  34  94 NE20G28   29.60F WCI  25
FREMONT        MIX PCPN  33  33 100 N7        29.66F WCI  27
MILLARD        RAIN      39  37  92 N9        29.61S WCI  33
OFFUTT AFB     LGT RAIN  38  36  92 N15G24    29.58F WCI  30
PLATTSMOUTH    DRIZZLE   38  36  90 NE12G18   29.58F WCI  31
WAHOO          LGT RAIN  34  33  95 N16       29.62F WCI  24
$$




USA.gov is the U.S. government's official web portal to all federal, state and local government web resources and services.